ROMMA est une association bénévole à but non lucratif. Votre soutien est indispensable : ADHERER à ROMMA ou FAIRE un DON

Die - (26, Drôme)

Diois (400 m)   Longitude: 5° 21' 55"E   Latitude: 44° 45' 16"N Station partenaire n°159
 

Détail journalier du     <<     >>

Température Precipitation Humidité Pression Vent Dir Rafale Dir. rafale Ensol.
Heure (°C) (mm) (%) (hPa) (km/h) (km/h) (min)
01:00 12.87.496101305N0
02:00 12.65.89610111N6SSO0
03:00 12.309510112SSO10E0
04:00 11.909510111ENE6NO0
05:00 11.60.49610121ONO3NO0
06:00 10.7095101103ONO0
07:00 10.1096101203ONO0
08:00 10.50.297101203ONO0
09:00 9.8097101303ONO0
10:00 11.109710141ONO3ONO0
11:00 12.309710151ONO3ONO0
12:00 14.409010151ONO5ONO30
13:00 16.008510151ENE6OSO0
14:00 16.907610141OSO6ONO0
15:00 17.207810132OSO5ONO0
16:00 17.307210143OSO11OSO0
17:00 16.708010142OSO6SO60
18:00 15.907710152ONO8OSO30
19:00 12.8089101603OSO0
20:00 11.0092101605O0
21:00 10.1095101703O0
22:00 9.3095101805O0
23:00 8.3095101803O0
minuit 7.809610191OSO5O0

Graphique du 24-10-2019

 

Serveur OMMA